Regional Weather Roundup
Issued by NWS

Home | Current Version | Previous Version | Text Only | Print | Product List | Glossary On
Versions: 1 2 3 4 5 6 7 8 9 10 11 12 13 14 15 16 17 18 19 20 21 22 23 24 25 26 27
000
ASUS45 KTFX 162110
RWRMT
MONTANA REGIONAL WEATHER ROUNDUP
NATIONAL WEATHER SERVICE GREAT FALLS MT
200 PM MST SAT DEC 16 2017

NOTE: "FAIR" INDICATES FEW OR NO CLOUDS BELOW 12000 FEET WITH NO
SIGNIFICANT WEATHER AND/OR OBSTRUCTIONS TO VISIBILITY.

MTZ001>007-043-162200-
WEST OF THE DIVIDE

CITY           SKY/WX    TMP DP  RH WIND       PRES   REMARKS
KALISPELL      CLOUDY    29  26  89 S5        30.09F
MISSOULA       CLOUDY    33  25  72 N8        30.10S WCI  26
BUTTE          CLOUDY    28  17  63 W9        29.98S WCI  19
MULLAN PASS    CLOUDY    20  14  77 CALM      30.01S
ANACONDA         N/A     28  21  74 NE6       30.01S WCI  22
DEER LODGE       N/A     28  21  74 N9        30.03S WCI  20
EUREKA           N/A     30  21  69 MISG      30.14S
HAMILTON         N/A     30  28  93 N6        30.09S WCI  24
LIBBY            N/A     36  23  60 CALM      30.12F
RONAN            N/A     29  27  92 SE3       30.14R
$$

MTZ008-052>055-162200-
SOUTHWEST MONTANA

CITY           SKY/WX    TMP DP  RH WIND       PRES   REMARKS
BOZEMAN        LGT SNOW  30  28  92 NW5       29.98R VSB 3/4
DILLON         LGT SNOW  30  24  78 NE6       29.96S WCI  24
W YELLOWSTONE  CLOUDY    25  21  86 SW5       29.86S
ENNIS          CLOUDY    28  23  80 N14       29.98S WCI  17
THREE FORKS      N/A     32  28  85 CALM      29.98S
$$

MTZ009-010-012-014-046-048-049-054-162200-
EAST SLOPES AND CENTRAL MONTANA

CITY           SKY/WX    TMP DP  RH WIND       PRES   REMARKS
CUT BANK       CLOUDY    28  26  92 W3        29.97F
GREAT FALLS    FAIR      33  27  78 SW5       29.99F
MALMSTROM AFB  PTSUNNY   33  28  81 SE5       30.00F
HELENA         CLOUDY    36  22  56 W8        29.99F WCI  30
BOWMANS CRNR   FAIR      32  21  64 S5        29.94F
CHOTEAU          N/A     34  23  64 N6        29.99F WCI  29
FAIRFIELD      FAIR      35  21  57 NW5       29.97F
POWER          FAIR      32  24  73 S5        29.98
RAYNESFORD     PTSUNNY   30  25  81 E7        29.98F WCI  23
ULM            FAIR      32  28  85 SW6       29.99F WCI  27
$$

MTZ011-013-016-021-045-047-050-051-162200-
NORTH CENTRAL MONTANA

CITY           SKY/WX    TMP DP  RH WIND       PRES   REMARKS
HAVRE          CLOUDY    32  31  96 SW3       30.02F
LEWISTOWN      CLOUDY    31  27  85 W7        29.97F WCI  24
N BAR RANCH    PTSUNNY   32  14  47 NE5       29.98S
CHINOOK          N/A     34  30  86 W6        30.02F WCI  29
DENTON         PTSUNNY   34  25  68 W10       29.96  WCI  26
GEYSER         LGT RAIN  29  26  89 CALM      29.98F
GRASS RANGE    PTSUNNY   34  22  62 CALM      29.95S
STANFORD       FAIR      25  24  94 CALM      29.97F
WINIFRED       PTSUNNY   35  26  70 CALM      29.98S
$$

MTZ017>020-022>027-061-062-162200-
NORTHEAST MONTANA

CITY           SKY/WX    TMP DP  RH WIND       PRES   REMARKS
GLASGOW        FAIR      37  20  50 NW15      29.98  WCI  28
GLENDIVE       FAIR      38  20  48 W7        29.99S
JORDAN           N/A     39  22  50 NW10      29.99R
SIDNEY         FAIR      37  20  50 W9        29.97R WCI  30
WOLF POINT     FAIR      35  25  66 W10       29.98S WCI  27
MALTA          CLOUDY    39  23  52 W13       30.01S WCI  32
PLENTYWOOD       N/A     37  18  44 W17       29.92S WCI  28
POPLAR           N/A     34  23  64 W8        29.97S WCI  27
$$

MTZ028>42-056>058-162200-
SOUTHCENTRAL AND SOUTHEAST MONTANA

CITY           SKY/WX    TMP DP  RH WIND       PRES   REMARKS
BAKER          FAIR      34  28  79 NW9       29.97S WCI  27
BILLINGS       LGT SNOW  30  29  96 NE6       29.99R FOG     WCI  24
LIVINGSTON     LGT SNOW  28  27  96 E13       29.95R FOG     WCI  17
MILES CITY     FAIR      37  24  59 NW5       29.99S
BIG TIMBER     PTSUNNY   27  27 100 NE8       29.99S FOG     WCI  18
FORSYTH          N/A     37  25  60 CALM      30.00S
LAUREL         FOG       30  28  93 NE9       30.00R VSB 1   WCI  22
ROUNDUP          N/A     35  24  64 CALM      29.90F
$$

REGIONAL REPORTS...DAKOTAS

CITY           SKY/WX    TMP DP  RH WIND       PRES   REMARKS
WILLISTON      FAIR      35  22  58 W12       29.94F WCI  27
MINOT          FAIR      40  26  57 W13       29.89S
DICKINSON      FAIR      34  24  67 W15       29.93R WCI  24
BEACH          FAIR      32  25  74 W12       30.00S WCI  23
CROSBY         FAIR      37  19  48 W18       29.91S WCI  27
TIOGA          FAIR      32  25  74 W13       29.92S WCI  22
WATFORD CITY   FAIR      36  23  60 W12       29.94S WCI  27
BISMARCK       FAIR      39  31  72 NW10      29.95R
GRAND FORKS    FAIR      30  25  81 NW6       29.92R WCI  24
FARGO          CLOUDY    32  27  81 W6        29.95R WCI  26
BUFFALO SD       N/A     37  23  56 NW12      29.89R WCI  29
RAPID CITY     FLURRIES  35  25  66 N17       29.94R WCI  25
$$

REGIONAL REPORTS...WYOMING/IDAHO/WASHINGTON

CITY           SKY/WX    TMP DP  RH WIND       PRES   REMARKS
GILLETTE       CLOUDY    31  26  82 NE10      29.91S WCI  22
SHERIDAN       LGT SNOW  31  29  92 CALM      29.95S FOG
BUFFALO WY     LGT SNOW  30  24  78 N9        29.92S VSB 1   WCI  22
CODY           FLURRIES  30  24  78 N9        29.88S WCI  22
YELLOWSTONE LA   N/A     23  20  88 CALM      29.84S
IDAHO FALLS    LGT SNOW  24  22  91 SW10      29.97R FOG     WCI  14
SALMON         CLOUDY    34  23  64 CALM      30.05F
BOISE          FAIR      34  26  72 NW20G25   30.09F WCI  23
SPOKANE        FOG       24  24 100 W5        30.23F VSB 1/2
$$

REGIONAL REPORTS...ALBERTA

CITY           SKY/WX    TMP DP  RH WIND       PRES   REMARKS
EDMONTON       SUNNY     34  16  47 W14       29.84F WCI  24
CALGARY        MOSUNNY   36   7  30 SW6       29.89F WCI  31
LETHBRIDGE     PTSUNNY   32  28  86 W5        29.97F
MEDICINE HAT   PTSUNNY   37  30  75 W15       29.99F WCI  28
$$

REGIONAL REPORTS...SASKATCHEWAN

CITY           SKY/WX    TMP DP  RH WIND       PRES   REMARKS
SWIFT CURRENT  SUNNY     32  18  55 W18G24    29.89F WCI  20
REGINA         MOSUNNY   34  21  60 W20G25    29.87S WCI  22
SASKATOON      PTSUNNY   32  25  74 W17G24    29.82S WCI  21
$$




USA.gov is the U.S. government's official web portal to all federal, state and local government web resources and services.